Dewpoint
38 32 30 30 30 32 33 34 35 36 34 35 37 35 36 38 39 41 43 46 45 42 36 34 34 34 34 35 37 38 39 37 35 31 24 23 22 20 16 15 15 16 17 22 22 23 22 20 19 19 19 17 17 17 19 19 21 21 22 24 24 24 26 28 25 26 26 30 34 35 34 32 31 31 29 29 32 34 35 36 34 34 36 40 38 37
38 30 29 32 31 32 32 33 36 36 37 38 36 37 36 37 37 39 41 45 46 37 34 34 32 31 32 34 35 36 35 34 34 32 25 16 15 16 16 15 15 15 19 19 19 22 21 21 20 19 18 21 16 18 17 18 20 21 21 23 23 24 25 28 27 26 26 25 28 30 29 27 26 26 23 21 21 26 33 34 35 33 33 36 35 34
30 28 29 31 33 33 34 35 37 36 36 37 36 36 36 35 36 38 42 43 37 35 33 32 30 30 31 32 34 35 33 33 33 33 30 19 15 16 15 15 16 16 16 16 16 17 18 21 20 18 18 17 15 15 16 17 18 20 21 22 23 23 24 26 28 27 27 27 25 23 22 22 23 25 25 23 23 24 25 26 30 34 32 33 35 36
26 29 30 34 33 33 33 36 36 37 37 38 37 34 35 36 38 35 41 39 39 36 33 31 30 31 33 33 32 33 35 34 32 31 27 23 19 16 14 14 14 15 15 15 15 15 15 16 16 17 15 15 14 15 15 15 16 17 21 21 22 23 23 24 26 28 27 28 26 27 25 24 24 25 28 27 29 29 28 29 29 30 31 31 32 35
27 33 34 32 33 33 32 35 36 36 35 38 37 36 35 35 37 39 36 36 35 34 32 29 29 29 30 28 29 31 32 31 32 28 29 32 24 18 15 16 15 14 15 16 16 16 15 16 16 16 16 14 14 14 14 15 15 15 16 19 21 22 23 23 25 24 25 26 26 26 27 27 27 26 25 26 27 29 28 28 29 30 31 31 30 31
29 32 36 32 32 32 32 34 35 36 34 36 37 36 35 37 38 37 36 35 34 32 36 33 25 24 29 29 28 30 28 26 27 20 16 15 17 22 16 14 16 18 17 16 15 16 16 15 16 16 15 15 14 14 14 15 15 15 15 16 18 20 22 21 22 24 24 23 23 24 25 24 24 23 24 24 26 26 24 25 28 29 30 30 29 29
29 36 33 32 32 31 32 33 36 36 34 34 35 37 37 36 39 37 37 34 31 29 35 40 25 21 28 26 27 28 27 25 25 24 18 15 14 15 16 16 15 16 17 17 16 16 15 15 15 15 15 15 15 14 15 14 15 15 15 15 16 18 19 22 20 22 24 21 21 20 22 21 20 20 22 23 25 24 23 23 24 26 26 27 26 26
31 34 34 33 31 31 31 31 36 36 35 33 36 38 38 38 39 39 39 36 35 34 33 35 31 23 21 25 28 28 25 25 24 24 23 18 15 15 15 16 15 15 15 16 15 15 15 15 14 14 14 15 15 15 14 14 14 15 15 14 15 16 18 17 19 19 23 21 21 20 20 22 20 19 19 21 21 20 21 19 20 22 24 25 26 25
34 33 33 32 30 30 29 30 37 37 34 32 36 38 39 39 40 41 39 36 36 33 28 31 34 24 23 26 29 28 23 23 23 24 24 23 20 18 17 16 16 15 15 14 15 15 15 15 15 15 15 15 15 16 15 15 14 16 16 16 14 14 16 16 17 18 19 22 20 20 19 19 20 19 20 20 21 19 19 18 18 19 20 22 24 25
33 33 33 33 30 29 29 33 37 37 34 35 39 37 35 36 40 39 36 35 33 31 26 30 32 23 23 27 27 28 24 23 23 24 24 25 23 20 17 16 16 16 17 16 15 16 16 16 16 16 16 16 16 17 19 17 16 16 16 17 15 15 15 16 16 16 18 19 19 19 19 19 18 19 19 19 20 19 17 16 17 18 19 20 21 21
29 35 37 30 31 30 31 35 38 37 35 39 39 36 35 34 34 33 34 34 31 26 29 31 30 25 20 26 25 24 24 24 24 25 26 26 24 23 21 19 19 17 17 17 16 16 16 16 16 17 16 16 17 18 18 19 18 17 17 17 17 16 15 15 16 17 17 18 18 18 19 20 19 18 19 19 20 19 18 17 17 17 18 19 20 20
27 30 32 32 36 36 38 37 38 38 38 37 34 34 34 33 34 31 27 27 25 24 28 29 27 25 19 22 28 29 26 25 24 23 24 24 25 25 25 23 22 21 20 19 18 17 17 17 17 17 17 18 18 18 18 18 19 19 17 17 17 17 16 16 16 17 18 18 18 18 18 20 20 18 19 19 20 20 17 16 16 17 18 18 20 20
29 29 29 30 36 36 37 36 33 32 37 34 33 33 27 26 27 25 25 22 23 23 28 30 30 24 20 25 28 25 25 25 25 25 24 25 25 25 26 25 24 24 22 21 19 19 19 18 17 17 18 19 19 20 19 19 19 19 18 17 17 17 17 15 15 16 16 17 16 17 17 18 20 18 18 19 20 20 17 15 15 16 16 18 19 19
28 28 28 29 31 33 36 32 32 32 34 33 32 29 22 18 21 21 21 24 24 26 30 27 28 22 25 25 28 27 28 27 27 26 26 26 26 26 26 25 24 23 21 20 19 20 19 19 19 19 19 20 21 20 21 20 20 19 19 19 18 18 18 17 16 15 16 17 17 17 17 17 18 17 18 20 20 20 17 16 14 14 15 17 17 18
21 23 26 26 27 31 34 34 35 35 32 32 25 28 24 21 19 17 17 18 20 24 28 28 21 18 21 21 29 29 29 29 28 27 27 28 27 27 26 25 22 20 19 20 19 19 19 20 20 21 21 21 22 22 22 21 20 19 19 20 18 18 19 18 16 16 16 17 17 17 17 18 18 17 17 20 23 20 17 14 14 14 15 16 16 17
24 25 28 29 29 33 34 35 36 34 30 28 27 27 25 20 25 20 19 25 24 25 23 22 20 24 24 28 29 28 28 27 27 26 27 26 26 26 24 22 21 19 19 21 19 20 19 20 21 22 22 22 23 23 23 22 21 20 20 20 19 19 19 19 18 16 15 16 17 17 17 17 18 18 18 20 22 20 16 14 14 14 15 16 16 16
26 26 29 32 32 30 33 35 33 33 26 30 30 25 30 31 28 25 25 24 23 20 19 24 22 23 26 27 27 26 25 24 25 25 24 24 24 23 22 21 20 20 20 21 21 20 19 21 21 22 21 20 21 22 23 23 22 20 20 20 20 19 19 19 18 16 15 16 17 18 17 18 17 17 17 18 20 17 15 14 14 14 15 15 15 17
24 26 29 30 31 30 32 35 33 32 32 29 26 30 30 30 27 25 21 18 18 18 20 21 19 20 22 19 26 25 23 22 22 22 22 22 22 21 21 22 22 21 20 20 20 20 20 21 21 22 21 19 19 20 21 23 23 22 21 20 20 19 19 19 17 16 15 16 17 18 18 18 18 17 17 18 20 16 14 13 14 13 15 13 14 15
28 25 27 27 29 31 31 31 34 35 33 29 29 34 23 17 18 20 19 11 9 11 18 21 21 21 21 22 24 23 22 21 21 21 20 20 20 20 21 21 21 21 22 19 17 18 19 20 21 20 19 19 19 20 20 23 24 23 22 22 21 20 20 19 18 16 16 16 18 19 18 18 18 17 18 18 20 15 14 13 13 13 14 13 14 14
28 25 26 27 28 28 29 29 24 26 30 29 29 25 27 23 22 14 9 15 19 15 15 18 21 20 23 23 23 23 23 22 21 20 20 20 19 20 20 21 21 21 19 17 17 17 18 18 19 19 18 18 18 19 21 21 24 22 22 22 21 20 20 19 16 16 15 16 17 17 17 17 19 17 18 17 18 14 14 14 13 12 12 12 13 13
24 26 22 25 28 29 26 28 28 28 25 25 24 18 21 19 23 22 17 13 16 16 15 17 15 20 20 20 24 23 23 22 21 20 20 19 19 20 20 20 20 18 16 16 16 16 16 17 18 19 20 20 19 20 21 21 22 22 22 22 21 20 19 18 16 15 16 17 17 17 17 17 18 17 17 15 16 13 13 13 13 12 12 12 12 13
25 24 23 24 25 22 27 28 29 29 29 23 21 23 22 16 14 9 10 19 12 15 13 11 7 14 20 18 23 23 23 21 21 20 19 19 19 20 21 20 18 16 14 13 14 15 16 16 17 19 19 19 18 17 18 21 21 20 21 22 20 20 20 18 16 16 17 17 17 16 17 17 18 17 16 14 14 13 14 12 12 12 12 11 11 12
27 25 25 22 22 23 25 26 29 28 30 26 26 26 25 18 15 11 10 10 10 14 17 12 7 12 19 19 21 23 21 20 19 19 18 19 20 20 20 19 16 14 12 12 13 14 16 16 18 18 17 16 16 16 17 20 21 20 20 21 20 19 19 19 16 16 17 17 16 16 17 17 17 16 15 13 13 12 13 12 11 12 11 10 11 12
32 18 18 18 20 22 23 25 23 22 25 24 25 24 25 23 24 14 13 17 12 10 12 6 6 8 20 21 19 20 20 19 19 19 18 19 19 20 19 17 15 12 11 11 14 15 16 16 17 17 16 16 16 15 17 20 20 20 20 21 19 19 19 19 16 16 16 16 16 15 16 16 16 14 13 12 12 12 12 11 10 11 11 10 11 11
13 16 19 9 4 7 10 17 19 20 23 18 20 23 23 24 24 23 17 9 15 12 10 11 3 3 20 20 19 18 18 18 18 18 19 19 19 19 17 15 13 11 11 11 13 14 15 15 15 17 17 16 16 16 17 20 21 19 20 20 19 18 19 19 16 15 16 16 15 15 15 15 14 12 12 12 11 11 11 10 9 9 9 10 10 10
20 17 9 9 12 6 7 7 6 8 18 22 22 22 22 22 22 15 11 6 7 11 10 1 -0 16 17 18 17 18 18 17 18 18 19 19 18 17 15 14 12 10 10 10 12 13 13 15 17 17 16 16 17 16 18 19 20 19 19 20 19 17 17 17 14 14 15 16 15 15 15 14 12 12 11 12 11 11 10 9 8 8 8 9 9 9
13 15 13 5 7 8 7 10 16 24 20 17 20 20 20 21 21 18 14 5 5 10 10 15 17 17 15 16 16 17 17 17 17 18 18 19 19 18 16 15 12 10 9 10 12 12 15 14 13 14 15 15 15 16 18 19 19 19 19 19 18 17 16 15 13 14 15 15 14 15 14 13 12 11 11 10 11 11 10 8 7 7 8 9 9 8
10 15 15 13 14 14 18 14 17 23 20 20 19 19 20 21 20 15 8 7 14 15 8 11 16 15 16 16 16 16 17 17 17 18 18 18 19 18 17 15 18 9 10 11 11 12 11 12 13 14 14 15 15 17 18 19 19 19 19 17 16 16 15 16 13 14 14 15 14 15 14 13 12 11 11 11 11 11 9 7 6 7 7 8 8 8
9 9 14 12 11 14 15 15 17 16 17 19 19 19 19 20 20 16 18 20 17 6 7 16 17 15 17 16 16 17 17 17 17 18 18 18 19 19 17 14 11 8 10 9 9 10 11 11 13 13 14 14 15 16 17 18 18 18 18 17 15 15 13 14 13 13 14 14 14 15 14 13 12 11 9 10 10 10 8 6 5 6 7 7 7 8
16 9 13 12 9 11 14 14 12 12 13 13 14 16 19 20 20 20 19 20 20 15 19 20 18 18 21 17 17 17 18 17 18 18 19 19 19 19 16 13 7 7 8 7 8 10 11 11 12 13 13 14 15 16 17 18 17 18 17 15 15 14 14 14 13 13 13 13 14 15 14 12 10 9 8 8 9 8 6 5 5 5 6 6 6 6
15 8 22 12 2 3 10 14 9 7 9 13 10 8 15 18 16 18 19 20 21 20 20 19 18 18 21 20 18 18 17 15 16 18 18 18 19 19 16 11 6 6 7 8 9 10 11 11 12 14 15 14 15 17 17 17 17 17 17 15 14 14 13 14 13 13 13 13 14 15 14 11 9 8 7 8 8 7 6 4 5 5 5 5 5 5
13 8 7 0 -2 -6 5 9 6 1 -2 -2 -2 2 6 13 12 15 16 19 19 19 19 18 16 19 19 19 18 16 14 13 15 17 18 18 19 19 17 12 6 6 7 7 9 10 11 12 12 13 13 14 16 17 17 17 17 17 15 15 13 13 14 14 13 13 13 13 14 15 13 10 9 7 7 7 7 6 5 4 4 3 3 4 4 4
7 5 2 -4 -5 -10 1 3 4 -3 -3 -11 -6 -5 2 12 13 17 17 20 21 20 19 16 18 20 16 18 15 13 13 13 14 16 18 19 19 19 18 13 6 6 7 8 9 11 11 12 12 13 14 15 16 16 15 16 16 16 15 14 15 14 13 13 13 12 12 12 14 14 12 9 7 6 6 6 6 5 4 3 3 2 2 3 4 4
8 -2 -3 -2 -13 -12 -2 -1 -3 -14 -23 -10 6 18 9 9 13 10 12 15 18 21 20 19 19 16 15 16 15 12 12 12 12 14 18 19 19 19 18 13 6 5 7 8 9 11 12 12 13 14 14 15 15 15 15 16 14 15 15 14 14 12 11 12 12 12 11 12 13 13 10 8 7 5 5 6 5 3 2 2 1 1 2 3 4 3
7 -3 -2 -9 -5 -6 -9 -8 -5 -20 -8 0 16 19 19 17 15 13 12 13 16 18 15 14 14 14 15 16 16 13 13 12 12 12 15 19 20 19 17 12 6 7 7 8 10 11 11 12 13 14 15 15 15 16 16 16 16 15 14 14 12 12 11 11 10 10 10 12 12 10 8 7 5 4 4 4 3 2 1 0 -0 1 2 3 3 3
3 1 5 -2 -6 -7 -8 -11 -18 -7 1 4 7 15 18 16 16 10 7 10 14 17 17 15 14 14 14 15 14 12 12 10 9 12 14 19 20 18 16 12 7 7 7 8 10 10 11 12 12 13 14 17 17 16 14 13 14 12 12 13 12 11 10 9 8 8 9 10 8 7 6 5 3 3 3 2 1 0 0 1 -0 -0 1 4 3 4
16 7 -0 -1 -5 -12 -12 -11 -3 -2 -2 2 7 13 15 13 13 7 0 3 8 15 17 16 14 14 14 14 12 9 7 6 6 7 11 18 19 18 16 12 7 7 7 9 9 10 11 12 12 13 16 16 13 12 13 13 13 11 11 11 9 10 8 7 6 6 7 6 5 5 4 3 3 3 2 2 1 0 0 0 0 1 3 3 3 3
19 4 6 2 -0 -4 -6 -9 -8 -8 -15 -2 6 15 16 16 15 15 6 5 10 15 17 16 13 13 13 11 9 8 9 7 6 7 6 11 18 18 15 13 9 8 8 10 10 11 12 12 13 15 14 12 12 12 13 13 11 10 10 9 9 8 7 5 4 5 5 4 4 4 3 3 3 2 3 2 1 1 1 1 1 2 3 2 2 2
12 14 10 3 5 -2 -8 -11 -13 -15 -5 5 4 11 16 17 15 15 7 -0 7 13 17 15 13 13 12 9 8 8 8 10 9 10 9 8 14 16 13 9 9 8 9 10 11 11 11 12 13 14 13 11 11 12 12 11 10 9 9 9 8 7 6 5 4 3 3 3 3 2 2 3 3 3 2 2 1 1 1 1 1 2 2 2 2 1
0 1 3 3 1 -2 -9 -11 -10 -11 -11 -0 6 13 15 17 14 4 -13 -2 8 17 16 14 13 13 11 10 8 8 11 12 10 11 11 8 11 13 12 9 8 9 10 11 11 11 12 13 13 12 11 10 10 11 11 10 10 9 9 8 7 6 5 5 4 3 3 3 2 1 2 3 3 3 3 2 1 1 1 2 2 1 1 2 2 2
-1 -0 1 -4 -3 6 6 -7 -8 0 9 12 11 14 15 17 4 -6 -9 5 9 17 15 14 14 13 11 9 9 8 11 12 13 14 13 11 10 10 9 9 8 10 10 11 11 17 12 13 12 11 11 10 10 10 11 10 9 9 8 8 7 6 6 5 4 3 2 2 1 1 2 3 3 3 3 2 2 2 2 2 0 1 1 2 2 2
-8 -3 4 -4 -1 -0 -2 -3 1 2 8 15 14 14 16 6 -7 -3 8 15 16 16 15 15 14 13 11 13 9 11 11 13 16 12 11 10 9 9 9 8 9 10 10 13 14 15 11 11 11 11 10 10 9 10 10 9 9 8 8 7 7 7 6 4 3 2 1 1 1 2 3 3 4 3 2 1 2 1 1 0 0 1 1 2 1 0
1 -5 -4 -3 -0 -3 -6 -3 -7 -7 4 14 14 13 13 2 9 14 13 14 16 16 15 14 14 14 11 11 13 12 10 10 11 10 11 11 10 9 11 9 9 9 11 11 13 14 11 10 11 10 10 9 9 10 9 9 8 8 8 7 7 7 5 3 2 2 1 1 2 2 3 3 1 1 1 -1 -1 -0 -1 -0 -1 -1 -0 -0 -1 -1
7 -5 -10 -4 6 1 -3 -6 -3 7 9 16 11 11 12 12 16 16 14 13 14 15 14 14 14 14 14 12 11 12 10 9 11 10 10 10 9 9 10 9 10 10 11 12 12 14 12 10 10 10 10 9 9 9 9 8 8 8 7 7 7 7 4 3 2 2 2 2 2 2 1 -0 -1 -2 -3 -2 -1 -2 -2 -2 -2 -2 -1 -1 -1 -1
7 4 7 1 8 4 4 7 10 12 14 15 12 13 13 15 14 15 15 15 15 14 14 14 13 14 13 12 12 11 10 9 10 10 10 10 9 9 9 9 9 10 10 10 11 13 13 10 10 10 9 8 8 8 8 8 7 6 6 7 7 7 4 2 1 1 -0 0 -0 -2 -2 -2 -3 -4 -5 -4 -3 -4 -3 -4 -4 -3 -3 -3 -3 -2
7 7 5 2 9 9 10 11 11 11 11 15 16 13 14 15 14 15 14 14 15 15 14 14 14 14 13 13 11 11 10 9 9 10 9 8 9 9 9 9 9 10 10 10 10 12 12 11 10 9 9 8 7 7 7 7 7 6 6 6 5 4 2 1 -1 -1 -1 -3 -3 -3 -4 -5 -6 -7 -6 -6 -5 -6 -6 -6 -5 -6 -4 -4 -4 -5
5 6 1 2 5 -2 4 10 8 8 10 13 14 16 14 14 14 15 15 15 15 15 14 15 16 15 15 15 15 12 12 12 9 10 11 10 10 8 9 9 9 10 10 10 10 11 11 10 9 9 8 8 7 7 7 4 6 6 5 5 4 3 1 -2 -2 -2 -3 -3 -3 -6 -6 -7 -7 -5 -6 -7 -5 -6 -6 -5 -5 -5 -6 -6 -6 -6
8 7 4 7 1 4 6 7 6 5 9 11 16 15 15 17 15 14 17 15 15 16 17 16 14 14 14 13 13 12 11 11 9 9 10 10 10 9 10 10 10 10 11 11 11 11 11 10 9 8 8 8 7 6 6 5 5 4 3 2 2 -1 -2 -2 -3 -2 -3 -4 -6 -6 -7 -8 -3 -4 -6 -6 -8 -7 -6 -7 -7 -7 -7 -7 -7 -6
8 8 5 7 8 10 8 8 8 7 11 12 10 12 17 19 19 16 14 14 13 14 14 15 15 13 13 12 12 12 11 11 10 9 9 9 10 10 10 10 10 10 10 10 10 10 10 9 9 8 8 8 7 6 5 3 3 2 2 2 -2 -3 -3 -2 -3 -3 -5 -6 -7 -8 -8 -8 -9 -8 -8 -7 -8 -7 -5 -7 -7 -7 -6 -4 -3 -2
6 6 7 3 0 6 3 4 7 2 7 9 12 10 12 14 17 16 14 13 13 13 14 14 14 14 13 13 12 12 11 11 11 10 10 10 10 10 11 11 11 10 10 10 9 9 9 9 9 8 7 7 6 5 4 2 2 0 0 -2 -3 -4 -4 -4 -4 -6 -5 -7 -9 -10 -10 -10 -9 -10 -9 -9 -9 -9 -8 -4 -1 2 0 1 4 5
6 6 6 5 8 5 6 6 6 9 5 4 8 11 9 10 14 16 14 13 12 13 13 13 13 13 12 13 13 12 12 11 11 11 10 10 10 11 11 11 10 9 9 8 7 6 7 7 6 5 5 5 4 3 2 1 1 -1 -2 -2 -2 -3 -3 -6 -6 -6 -6 -9 -10 -9 -10 -11 -12 -13 -13 -12 -11 -11 -10 -9 -7 4 8 8 4 3